TimeCDT,TemperatureF,Dew PointF,Humidity,Sea Level PressureIn,VisibilityMPH,Wind Direction,Wind SpeedMPH,Gust SpeedMPH,PrecipitationIn,Events,Conditions,WindDirDegrees,DateUTC
12:15 AM,59.0,52.7,80,30.25,10.0,NE,4.6,-,N/A,,Overcast,40,2013-09-16 05:15:00
12:35 AM,59.2,52.2,78,30.26,10.0,NNE,3.5,-,N/A,,Overcast,30,2013-09-16 05:35:00
12:55 AM,59.0,52.7,80,30.26,10.0,Calm,Calm,-,N/A,,Overcast,0,2013-09-16 05:55:00
1:15 AM,58.5,52.7,81,30.27,10.0,North,3.5,-,N/A,,Overcast,360,2013-09-16 06:15:00
1:35 AM,58.1,52.2,81,30.27,10.0,NNW,4.6,-,N/A,,Overcast,340,2013-09-16 06:35:00
1:55 AM,57.7,51.8,81,30.28,10.0,Calm,Calm,-,N/A,,Overcast,0,2013-09-16 06:55:00
2:15 AM,57.6,51.3,79,30.28,10.0,Calm,Calm,-,N/A,,Overcast,0,2013-09-16 07:15:00
2:35 AM,57.2,50.7,79,30.28,10.0,North,6.9,-,N/A,,Overcast,350,2013-09-16 07:35:00
2:55 AM,57.0,50.4,78,30.29,10.0,North,6.9,-,N/A,,Overcast,10,2013-09-16 07:55:00
3:15 AM,56.7,50.2,79,30.29,10.0,North,3.5,-,N/A,,Overcast,350,2013-09-16 08:15:00
3:35 AM,55.9,50.2,81,30.30,10.0,Calm,Calm,-,N/A,,Overcast,0,2013-09-16 08:35:00
3:55 AM,55.8,50.0,81,30.30,10.0,North,3.5,-,N/A,,Overcast,360,2013-09-16 08:55:00
4:15 AM,55.4,49.6,81,30.31,10.0,NNE,3.5,-,N/A,,Overcast,20,2013-09-16 09:15:00
4:35 AM,55.4,49.6,81,30.31,10.0,NNE,3.5,-,N/A,,Overcast,20,2013-09-16 09:35:00
4:55 AM,54.7,49.3,82,30.31,10.0,Calm,Calm,-,N/A,,Overcast,0,2013-09-16 09:55:00
5:15 AM,54.0,49.3,84,30.31,10.0,NNE,3.5,-,N/A,,Overcast,20,2013-09-16 10:15:00
5:35 AM,53.8,49.1,84,30.33,10.0,Calm,Calm,-,N/A,,Overcast,0,2013-09-16 10:35:00
5:55 AM,53.8,49.3,85,30.34,10.0,NNE,3.5,-,N/A,,Overcast,30,2013-09-16 10:55:00
6:15 AM,53.6,49.5,86,30.34,10.0,NE,3.5,-,N/A,,Overcast,50,2013-09-16 11:15:00
6:35 AM,53.4,50.0,88,30.34,10.0,East,4.6,-,N/A,,Overcast,90,2013-09-16 11:35:00
6:55 AM,53.6,49.5,86,30.35,10.0,East,4.6,-,N/A,,Overcast,90,2013-09-16 11:55:00
7:15 AM,53.6,49.5,86,30.36,10.0,NE,3.5,-,N/A,,Overcast,50,2013-09-16 12:15:00
7:35 AM,53.6,49.5,86,30.36,10.0,NNE,9.2,-,N/A,,Overcast,30,2013-09-16 12:35:00
7:55 AM,52.9,48.4,85,30.37,10.0,NE,13.8,-,N/A,,Overcast,50,2013-09-16 12:55:00
8:15 AM,51.8,48.0,87,30.38,10.0,East,6.9,-,N/A,,Overcast,80,2013-09-16 13:15:00
8:35 AM,51.6,47.8,87,30.38,5.0,ENE,8.1,-,N/A,,Overcast,60,2013-09-16 13:35:00
8:55 AM,51.4,47.7,87,30.39,5.0,ENE,8.1,-,N/A,,Overcast,60,2013-09-16 13:55:00
9:15 AM,51.8,47.5,85,30.39,7.0,ENE,10.4,-,N/A,,Overcast,70,2013-09-16 14:15:00
9:35 AM,52.0,46.9,83,30.40,10.0,East,8.1,-,N/A,,Overcast,80,2013-09-16 14:35:00
9:55 AM,52.0,46.4,81,30.40,10.0,ENE,11.5,-,N/A,,Overcast,70,2013-09-16 14:55:00
10:15 AM,52.7,45.9,78,30.40,10.0,East,9.2,-,N/A,,Overcast,80,2013-09-16 15:15:00
10:35 AM,52.2,45.3,78,30.41,10.0,NE,5.8,-,N/A,,Overcast,40,2013-09-16 15:35:00
10:55 AM,52.7,44.6,74,30.41,10.0,NNE,4.6,-,N/A,,Overcast,20,2013-09-16 15:55:00
11:15 AM,54.7,44.6,69,30.40,10.0,East,4.6,-,N/A,,Scattered Clouds,80,2013-09-16 16:15:00
11:35 AM,56.3,44.6,65,30.39,10.0,WNW,3.5,-,N/A,,Clear,300,2013-09-16 16:35:00
11:55 AM,59.7,38.3,45,30.39,10.0,NE,6.9,-,N/A,,Clear,50,2013-09-16 16:55:00
12:15 PM,59.7,34.7,39,30.39,10.0,NNE,4.6,-,N/A,,Clear,30,2013-09-16 17:15:00
12:35 PM,60.4,37.0,42,30.39,10.0,East,6.9,-,N/A,,Clear,90,2013-09-16 17:35:00
12:55 PM,61.2,38.3,43,30.39,10.0,East,6.9,-,N/A,,Clear,80,2013-09-16 17:55:00
1:15 PM,61.3,39.4,44,30.39,10.0,ENE,3.5,-,N/A,,Clear,60,2013-09-16 18:15:00
1:35 PM,61.9,39.4,43,30.38,10.0,SSW,4.6,-,N/A,,Clear,210,2013-09-16 18:35:00
1:55 PM,63.0,38.5,40,30.37,10.0,ENE,3.5,-,N/A,,Clear,70,2013-09-16 18:55:00
2:15 PM,63.3,38.1,39,30.36,10.0,East,3.5,-,N/A,,Clear,90,2013-09-16 19:15:00
2:35 PM,63.1,37.2,38,30.35,10.0,Calm,Calm,-,N/A,,Clear,0,2013-09-16 19:35:00
2:55 PM,64.8,38.1,37,30.34,10.0,NE,5.8,-,N/A,,Clear,40,2013-09-16 19:55:00
3:15 PM,64.4,37.9,38,30.34,10.0,Calm,Calm,-,N/A,,Clear,0,2013-09-16 20:15:00
3:35 PM,65.8,37.9,36,30.33,10.0,East,6.9,-,N/A,,Clear,90,2013-09-16 20:35:00
3:55 PM,66.0,38.7,37,30.32,10.0,ESE,6.9,-,N/A,,Clear,110,2013-09-16 20:55:00
4:15 PM,65.7,38.7,37,30.32,10.0,Calm,Calm,-,N/A,,Clear,0,2013-09-16 21:15:00
4:35 PM,65.7,37.9,36,30.31,10.0,ENE,4.6,-,N/A,,Clear,60,2013-09-16 21:35:00
4:55 PM,65.7,39.2,38,30.31,10.0,ENE,5.8,-,N/A,,Clear,70,2013-09-16 21:55:00
5:15 PM,66.0,40.3,39,30.31,10.0,NE,8.1,-,N/A,,Clear,50,2013-09-16 22:15:00
5:35 PM,65.3,40.1,40,30.30,10.0,NE,6.9,-,N/A,,Clear,40,2013-09-16 22:35:00
5:55 PM,64.8,41.2,42,30.30,10.0,ENE,4.6,-,N/A,,Clear,60,2013-09-16 22:55:00
6:15 PM,64.2,41.5,44,30.30,10.0,NE,5.8,-,N/A,,Clear,40,2013-09-16 23:15:00
6:35 PM,63.1,42.4,47,30.30,10.0,NE,4.6,-,N/A,,Clear,40,2013-09-16 23:35:00
6:55 PM,61.7,43.2,51,30.29,10.0,NE,4.6,-,N/A,,Clear,50,2013-09-16 23:55:00
7:15 PM,59.9,44.4,57,30.29,10.0,Calm,Calm,-,N/A,,Clear,0,2013-09-17 00:15:00
7:35 PM,56.8,46.8,69,30.29,10.0,Calm,Calm,-,N/A,,Clear,0,2013-09-17 00:35:00
7:55 PM,55.2,46.8,73,30.29,10.0,East,4.6,-,N/A,,Clear,100,2013-09-17 00:55:00
8:15 PM,54.3,46.6,75,30.29,10.0,Calm,Calm,-,N/A,,Clear,0,2013-09-17 01:15:00
8:35 PM,53.4,47.1,79,30.30,10.0,ESE,3.5,-,N/A,,Clear,120,2013-09-17 01:35:00
8:55 PM,51.8,47.3,85,30.30,7.0,East,4.6,-,N/A,,Clear,100,2013-09-17 01:55:00
9:15 PM,51.4,46.6,83,30.31,10.0,ESE,3.5,-,N/A,,Clear,120,2013-09-17 02:15:00
9:35 PM,50.4,46.4,86,30.30,10.0,East,4.6,-,N/A,,Clear,100,2013-09-17 02:35:00
9:55 PM,51.3,45.9,82,30.30,10.0,ESE,4.6,-,N/A,,Clear,120,2013-09-17 02:55:00
10:15 PM,50.5,45.9,84,30.30,10.0,ESE,4.6,-,N/A,,Clear,110,2013-09-17 03:15:00
10:35 PM,50.0,45.7,85,30.31,10.0,ESE,3.5,-,N/A,,Clear,120,2013-09-17 03:35:00
10:55 PM,50.0,45.5,85,30.31,10.0,Calm,Calm,-,N/A,,Clear,0,2013-09-17 03:55:00
11:15 PM,49.1,45.5,87,30.31,10.0,Calm,Calm,-,N/A,,Clear,0,2013-09-17 04:15:00
11:35 PM,48.4,45.7,90,30.31,10.0,ESE,3.5,-,N/A,,Clear,110,2013-09-17 04:35:00
11:55 PM,48.6,45.9,90,30.31,10.0,East,5.8,-,N/A,,Clear,100,2013-09-17 04:55:00